DW2217 Weather Reports


time (UTC)temp
C
wind
direction
speed
KPH
gust
KPH
rain 1hr
cm
rain 24hr
cm
rain mn
cm
humidity
%
barometer
mb
20210414113043 3 0.0 1.6 0.00 0.00 0.00 82 1018.4
20210414111525 2 0.0 0.0 0.00 0.00 0.00 82 1018.4
20210414110321 2 0.0 0.0 0.00 0.00 0.00 82 1018.3
20210414104523 2 0.0 0.0 0.00 0.00 0.00 83 1018.2
20210414103028 2 0.0 0.0 0.00 0.00 0.00 83 1018.2
20210414101523 2 0.0 0.0 0.00 0.00 0.00 83 1018.0
20210414100041 2 0.0 0.0 0.00 0.00 0.00 83 1018.0
20210414094520 2 0.0 0.0 0.00 0.00 0.00 84 1017.9
20210414093032 2 0.0 0.0 0.00 0.00 0.00 84 1017.8
20210414091525 3 0.0 0.0 0.00 0.00 0.00 84 1017.9
20210414090041 3 0.0 0.0 0.00 0.00 0.00 84 1017.8
20210414084523 3 0.0 0.0 0.00 0.00 0.00 84 1017.7
20210414083039 3 0.0 0.0 0.00 0.00 0.00 84 1017.6
20210414081524 3 0.0 0.0 0.00 0.00 0.00 84 1017.5
20210414080047 4 0.0 0.0 0.00 0.00 0.00 85 1017.6
20210414074538 4 0.0 0.0 0.00 0.00 0.00 85 1017.5
20210414073026 4 0.0 3.2 0.00 0.00 0.00 85 1017.4
20210414071531 4 0.0 0.0 0.00 0.00 0.00 85 1017.3
20210414070115 5 0.0 0.0 0.00 0.00 0.00 85 1017.2
20210414064526 5 0.0 1.6 0.00 0.00 0.00 85 1017.1
20210414063050 4 0.0 1.6 0.00 0.00 0.00 85 1017.1
20210414061519 4 0.0 0.0 0.00 0.00 0.00 85 1017.0
20210414060222 4 0.0 0.0 0.00 0.00 0.00 85 1017.1
20210414054535 5 0.0 0.0 0.00 0.00 0.00 85 1017.2
20210414053033 5 0.0 0.0 0.00 0.00 0.00 84 1017.3
20210414051524 5 0.0 0.0 0.00 0.00 0.00 83 1017.4
20210414050236 6 0.0 0.0 0.00 0.00 0.00 83 1017.4
20210414044522 6 0.0 0.0 0.00 0.00 0.00 83 1017.1
20210414043051 6 0.0 0.0 0.00 0.00 0.00 83 1017.2
20210414041546 6 0.0 1.6 0.00 0.00 0.00 82 1017.3
20210414040248 6 0.0 3.2 0.00 0.00 0.00 81 1017.3
20210414034533 6 0.0 3.2 0.00 0.00 0.00 81 1017.1
20210414033354 7 0.0 3.2 0.00 0.00 0.00 81 1017.0
20210414031537 7 0.0 3.2 0.00 0.00 0.00 81 1016.9
20210414030101 7 0.0 3.2 0.00 0.00 0.00 81 1016.6
20210414024532 7 0.0 4.8 0.00 0.00 0.00 81 1016.6
20210414023129 8 0.0 6.4 0.00 0.00 0.00 78 1016.6
20210414021526 8 0.0 6.4 0.00 0.00 0.00 75 1016.3
20210414014544 8 0.0 3.2 0.00 0.00 0.00 73 1015.9
20210414011525 9 0.0 1.6 0.00 0.00 0.00 72 1015.7
20210414004538 10 0.0 1.6 0.00 0.00 0.00 70 1015.3
20210414001538 11 0.0 3.2 0.00 0.00 0.00 66 1015.2
20210414000037 12 0.0 1.6 0.00 0.00 0.00 62 1015.0
20210413234523 13 0.0 1.6 0.00 0.00 0.00 60 1014.8
20210413231530 14 0.0 0.0 0.00 0.00 0.00 55 1014.6
20210413230258 15 0.0 0.0 0.00 0.00 0.00 54 1014.6
20210413224558 15 0.0 0.0 0.00 0.00 0.00 54 1014.7
20210413223115 15 0.0 0.0 0.00 0.00 0.00 53 1014.6
20210413221537 15 0.0 0.0 0.00 0.00 0.00 52 1014.8
20210413220317 15 0.0 0.0 0.00 0.00 0.00 52 1014.8
20210413214527 16 0.0 0.0 0.00 0.00 0.00 51 1014.8
20210413213101 16 0.0 1.6 0.00 0.00 0.00 50 1014.9
20210413211527 16 0.0 0.0 0.00 0.00 0.00 49 1014.8
20210413210044 16 0.0 0.0 0.00 0.00 0.00 49 1014.8
20210413204524 16 0.0 1.6 0.00 0.00 0.00 48 1014.7
20210413203131 16 0.0 1.6 0.00 0.00 0.00 48 1014.7
20210413201533 16 0.0 1.6 0.00 0.00 0.00 50 1014.7
20210413200259 16 0.0 1.6 0.00 0.00 0.00 49 1014.7
20210413194528 16 0.0 1.6 0.00 0.00 0.00 49 1014.8
20210413193148 16 0.0 6.4 0.00 0.00 0.00 49 1014.8
20210413191534 16 0.0 1.6 0.00 0.00 0.00 48 1015.1
20210413190118 16 0.0 1.6 0.00 0.00 0.00 50 1015.2
20210413184530 16 0.0 4.8 0.00 0.00 0.00 51 1015.3
20210413183033 16 0.0 8.0 0.00 0.00 0.00 51 1015.6
20210413181525 16 0.0 4.8 0.00 0.00 0.00 51 1015.7
20210413180026 15 0.0 4.8 0.00 0.00 0.00 54 1015.9
20210413174527 15 0.0 1.6 0.00 0.00 0.00 55 1016.0
20210413173047 14 0.0 4.8 0.00 0.00 0.00 56 1016.0
20210413171545 13 0.0 4.8 0.00 0.00 0.00 57 1015.9
20210413170131 13 0.0 8.0 0.00 0.00 0.00 58 1016.0
20210413164536 13 0.0 4.8 0.00 0.00 0.00 58 1016.3
20210413163223 13 0.0 3.2 0.00 0.00 0.00 60 1016.4
20210413161518 12 0.0 4.8 0.00 0.00 0.00 60 1016.4
20210413160236 12 0.0 6.4 0.00 0.00 0.00 62 1016.5
20210413154525 12 0.0 1.6 0.00 0.00 0.00 62 1016.5
20210413153123 12 0.0 3.2 0.00 0.00 0.00 62 1016.6
20210413151549 11 0.0 4.8 0.00 0.00 0.00 63 1016.6
20210413144539 11 0.0 1.6 0.00 0.00 0.00 64 1016.6
20210413143148 11 0.0 4.8 0.00 0.00 0.00 65 1016.5
20210413141522 10 0.0 6.4 0.00 0.00 0.00 66 1016.5
20210413140132 10 0.0 4.8 0.00 0.00 0.00 66 1016.5
20210413134617 10 0.0 6.4 0.00 0.00 0.00 68 1016.4
20210413133154 10 0.0 4.8 0.00 0.00 0.00 69 1016.4
20210413131545 9 0.0 6.4 0.00 0.00 0.00 70 1016.3
20210413124557 8 0.0 6.4 0.00 0.00 0.00 73 1016.1
20210413121530 7 0.0 4.8 0.00 0.00 0.00 75 1016.1
20210413114526 7 0.0 4.8 0.00 0.00 0.00 78 1015.8